contact:dominique.lefevre@mio.osupytheas.fr, maurice.libes@osupytheas.fr, didier.mallarino@osupytheas.fr
Project:EMSO http://www.emso-fr.org/EMSO-France
Depth: 2436.0 m
Title:EMSO Ligure Ouest : Data MII capteur MICROCAT
DateTime_Computer,Latitude,Longitude,Temperature,Conductivity,Pressure,DateTime_Instrument
DateTime_Computer,Latitude,Longitude,degC,S m-1,dbar,DateTime_Instrument
2020-06-11T00:01:22Z,42.805,6.029,13.2982,4.60009,2470.25,2020-6-11T02:02:06Z
2020-06-11T00:04:25Z,42.805,6.029,13.2978,4.59997,2470.25,2020-6-11T02:05:09Z
2020-06-11T00:07:29Z,42.805,6.029,13.2976,4.59998,2470.25,2020-6-11T02:08:13Z
2020-06-11T00:10:32Z,42.805,6.029,13.2974,4.59999,2470.24,2020-6-11T02:11:16Z
2020-06-11T00:13:35Z,42.805,6.029,13.2992,4.60004,2470.227,2020-6-11T02:14:19Z
2020-06-11T00:16:38Z,42.805,6.029,13.2985,4.59991,2470.24,2020-6-11T02:17:22Z
2020-06-11T00:19:41Z,42.805,6.029,13.2976,4.59993,2470.227,2020-6-11T02:20:26Z
2020-06-11T00:22:45Z,42.805,6.029,13.2974,4.59991,2470.24,2020-6-11T02:23:29Z
2020-06-11T00:25:48Z,42.805,6.029,13.2976,4.59990,2470.227,2020-6-11T02:26:32Z
2020-06-11T00:28:51Z,42.805,6.029,13.2982,4.60008,2470.203,2020-6-11T02:29:35Z
2020-06-11T00:31:55Z,42.805,6.029,13.2973,4.59989,2470.227,2020-6-11T02:32:39Z
2020-06-11T00:34:58Z,42.805,6.029,13.2974,4.59988,2470.227,2020-6-11T02:35:42Z
2020-06-11T00:38:01Z,42.805,6.029,13.2976,4.59994,2470.24,2020-6-11T02:38:45Z
2020-06-11T00:41:04Z,42.805,6.029,13.2976,4.59987,2470.24,2020-6-11T02:41:48Z
2020-06-11T00:44:08Z,42.805,6.029,13.2980,4.59997,2470.217,2020-6-11T02:44:52Z
2020-06-11T00:47:11Z,42.805,6.029,13.2982,4.59998,2470.227,2020-6-11T02:47:55Z
2020-06-11T00:50:14Z,42.805,6.029,13.2982,4.60006,2470.227,2020-6-11T02:50:58Z
2020-06-11T00:53:17Z,42.805,6.029,13.2985,4.59990,2470.213,2020-6-11T02:54:01Z
2020-06-11T00:56:20Z,42.805,6.029,13.2979,4.59995,2470.227,2020-6-11T02:57:04Z
2020-06-11T00:59:24Z,42.805,6.029,13.2977,4.59991,2470.203,2020-6-11T03:00:08Z
2020-06-11T01:02:27Z,42.805,6.029,13.2984,4.59987,2470.203,2020-6-11T03:03:11Z
2020-06-11T01:05:30Z,42.805,6.029,13.2981,4.59994,2470.217,2020-6-11T03:06:14Z
2020-06-11T01:08:34Z,42.805,6.029,13.2982,4.59991,2470.24,2020-6-11T03:09:18Z
2020-06-11T01:11:37Z,42.805,6.029,13.2976,4.59994,2470.227,2020-6-11T03:12:21Z
2020-06-11T01:14:40Z,42.805,6.029,13.2979,4.59994,2470.203,2020-6-11T03:15:24Z
2020-06-11T01:17:43Z,42.805,6.029,13.2977,4.59992,2470.227,2020-6-11T03:18:28Z
2020-06-11T01:20:47Z,42.805,6.029,13.2976,4.60002,2470.203,2020-6-11T03:21:31Z
2020-06-11T01:23:50Z,42.805,6.029,13.2982,4.59991,2470.24,2020-6-11T03:24:34Z
2020-06-11T01:26:53Z,42.805,6.029,13.2979,4.59999,2470.24,2020-6-11T03:27:37Z
2020-06-11T01:29:56Z,42.805,6.029,13.2976,4.60002,2470.203,2020-6-11T03:30:40Z
2020-06-11T01:33:00Z,42.805,6.029,13.2982,4.59996,2470.217,2020-6-11T03:33:44Z
2020-06-11T01:36:03Z,42.805,6.029,13.2987,4.60003,2470.227,2020-6-11T03:36:47Z
2020-06-11T01:39:06Z,42.805,6.029,13.2978,4.59995,2470.24,2020-6-11T03:39:50Z
2020-06-11T01:42:09Z,42.805,6.029,13.2976,4.59990,2470.217,2020-6-11T03:42:53Z
2020-06-11T01:45:13Z,42.805,6.029,13.2982,4.59991,2470.18,2020-6-11T03:45:57Z
2020-06-11T01:48:16Z,42.805,6.029,13.2979,4.59991,2470.203,2020-6-11T03:49:00Z
2020-06-11T01:51:19Z,42.805,6.029,13.2979,4.59992,2470.194,2020-6-11T03:52:03Z
2020-06-11T01:54:22Z,42.805,6.029,13.2984,4.59992,2470.203,2020-6-11T03:55:06Z
2020-06-11T01:57:25Z,42.805,6.029,13.2973,4.59994,2470.156,2020-6-11T03:58:10Z
2020-06-11T02:00:29Z,42.805,6.029,13.2980,4.60006,2470.194,2020-6-11T04:01:13Z
2020-06-11T02:03:32Z,42.805,6.029,13.2991,4.60005,2470.194,2020-6-11T04:04:16Z
2020-06-11T02:06:35Z,42.805,6.029,13.2983,4.59989,2470.171,2020-6-11T04:07:19Z
2020-06-11T02:09:39Z,42.805,6.029,13.2976,4.59991,2470.194,2020-6-11T04:10:23Z
2020-06-11T02:12:42Z,42.805,6.029,13.2979,4.59995,2470.18,2020-6-11T04:13:26Z
2020-06-11T02:15:45Z,42.805,6.029,13.2984,4.59992,2470.156,2020-6-11T04:16:29Z
2020-06-11T02:18:48Z,42.805,6.029,13.2974,4.59988,2470.18,2020-6-11T04:19:32Z
2020-06-11T02:21:52Z,42.805,6.029,13.2979,4.59999,2470.156,2020-6-11T04:22:36Z
2020-06-11T02:24:55Z,42.805,6.029,13.2982,4.59987,2470.156,2020-6-11T04:25:39Z
2020-06-11T02:27:58Z,42.805,6.029,13.2985,4.59992,2470.194,2020-6-11T04:28:42Z
2020-06-11T02:31:01Z,42.805,6.029,13.2980,4.59989,2470.133,2020-6-11T04:31:45Z
2020-06-11T02:34:05Z,42.805,6.029,13.2984,4.59990,2470.156,2020-6-11T04:34:49Z
2020-06-11T02:37:08Z,42.805,6.029,13.2977,4.59983,2470.133,2020-6-11T04:37:52Z
2020-06-11T02:40:11Z,42.805,6.029,13.2976,4.59984,2470.166,2020-6-11T04:40:55Z
2020-06-11T02:43:14Z,42.805,6.029,13.2981,4.59989,2470.156,2020-6-11T04:43:58Z
2020-06-11T02:46:18Z,42.805,6.029,13.2976,4.59988,2470.156,2020-6-11T04:47:02Z
2020-06-11T02:49:21Z,42.805,6.029,13.2976,4.59990,2470.156,2020-6-11T04:50:05Z
2020-06-11T02:52:24Z,42.805,6.029,13.2983,4.60011,2470.156,2020-6-11T04:53:08Z
2020-06-11T02:55:28Z,42.805,6.029,13.2982,4.59996,2470.18,2020-6-11T04:56:12Z
2020-06-11T02:58:31Z,42.805,6.029,13.2979,4.59990,2470.156,2020-6-11T04:59:15Z
2020-06-11T03:01:34Z,42.805,6.029,13.2980,4.59991,2470.203,2020-6-11T05:02:18Z
2020-06-11T03:04:37Z,42.805,6.029,13.2978,4.59994,2470.147,2020-6-11T05:05:21Z
2020-06-11T03:07:41Z,42.805,6.029,13.2981,4.59990,2470.18,2020-6-11T05:08:25Z
2020-06-11T03:10:44Z,42.805,6.029,13.2981,4.59994,2470.18,2020-6-11T05:11:28Z
2020-06-11T03:13:47Z,42.805,6.029,13.2976,4.59989,2470.156,2020-6-11T05:14:31Z
2020-06-11T03:16:50Z,42.805,6.029,13.2977,4.59988,2470.133,2020-6-11T05:17:34Z
2020-06-11T03:19:54Z,42.805,6.029,13.2980,4.59991,2470.147,2020-6-11T05:20:38Z
2020-06-11T03:22:57Z,42.805,6.029,13.2977,4.59993,2470.156,2020-6-11T05:23:41Z
2020-06-11T03:26:00Z,42.805,6.029,13.2979,4.59988,2470.156,2020-6-11T05:26:44Z
2020-06-11T03:29:03Z,42.805,6.029,13.2979,4.59995,2470.156,2020-6-11T05:29:48Z
2020-06-11T03:32:07Z,42.805,6.029,13.2979,4.60000,2470.171,2020-6-11T05:32:51Z
2020-06-11T03:35:10Z,42.805,6.029,13.2978,4.59997,2470.133,2020-6-11T05:35:54Z
2020-06-11T03:38:13Z,42.805,6.029,13.2976,4.59997,2470.133,2020-6-11T05:38:57Z
2020-06-11T03:41:16Z,42.805,6.029,13.2982,4.59992,2470.156,2020-6-11T05:42:00Z
2020-06-11T03:44:20Z,42.805,6.029,13.2976,4.59989,2470.156,2020-6-11T05:45:04Z
2020-06-11T03:47:23Z,42.805,6.029,13.2976,4.59996,2470.147,2020-6-11T05:48:07Z
2020-06-11T03:50:26Z,42.805,6.029,13.2978,4.59999,2470.124,2020-6-11T05:51:10Z
2020-06-11T03:53:30Z,42.805,6.029,13.2978,4.60007,2470.124,2020-6-11T05:54:14Z
2020-06-11T03:56:33Z,42.805,6.029,13.2984,4.60004,2470.133,2020-6-11T05:57:17Z
2020-06-11T03:59:36Z,42.805,6.029,13.2985,4.59988,2470.133,2020-6-11T06:00:20Z
2020-06-11T04:02:40Z,42.805,6.029,13.2976,4.60014,2470.133,2020-6-11T06:03:24Z
2020-06-11T04:05:43Z,42.805,6.029,13.2981,4.60000,2470.087,2020-6-11T06:06:27Z
2020-06-11T04:08:46Z,42.805,6.029,13.2979,4.60002,2470.11,2020-6-11T06:09:30Z
2020-06-11T04:11:49Z,42.805,6.029,13.2975,4.59998,2470.133,2020-6-11T06:12:33Z
2020-06-11T04:14:53Z,42.805,6.029,13.2989,4.60007,2470.11,2020-6-11T06:15:37Z
2020-06-11T04:17:56Z,42.805,6.029,13.2982,4.59990,2470.147,2020-6-11T06:18:40Z
2020-06-11T04:20:59Z,42.805,6.029,13.2979,4.59992,2470.133,2020-6-11T06:21:43Z
2020-06-11T04:24:02Z,42.805,6.029,13.2974,4.59989,2470.11,2020-6-11T06:24:46Z
2020-06-11T04:27:06Z,42.805,6.029,13.2979,4.59996,2470.11,2020-6-11T06:27:50Z
2020-06-11T04:30:09Z,42.805,6.029,13.2979,4.60003,2470.11,2020-6-11T06:30:53Z
2020-06-11T04:33:12Z,42.805,6.029,13.2979,4.59991,2470.11,2020-6-11T06:33:56Z
2020-06-11T04:36:16Z,42.805,6.029,13.2977,4.59986,2470.087,2020-6-11T06:37:00Z
2020-06-11T04:39:19Z,42.805,6.029,13.2976,4.59986,2470.133,2020-6-11T06:40:03Z
2020-06-11T04:42:22Z,42.805,6.029,13.2983,4.60006,2470.087,2020-6-11T06:43:06Z
2020-06-11T04:45:25Z,42.805,6.029,13.2982,4.59995,2470.087,2020-6-11T06:46:09Z
2020-06-11T04:48:28Z,42.805,6.029,13.2982,4.59996,2470.096,2020-6-11T06:49:13Z
2020-06-11T04:51:32Z,42.805,6.029,13.2977,4.59991,2470.087,2020-6-11T06:52:16Z
2020-06-11T04:54:35Z,42.805,6.029,13.2983,4.59989,2470.11,2020-6-11T06:55:19Z
2020-06-11T04:57:38Z,42.805,6.029,13.2982,4.59988,2470.11,2020-6-11T06:58:22Z
2020-06-11T05:00:41Z,42.805,6.029,13.2980,4.59988,2470.077,2020-6-11T07:01:25Z
2020-06-11T05:03:45Z,42.805,6.029,13.2978,4.59991,2470.11,2020-6-11T07:04:29Z
2020-06-11T05:06:48Z,42.805,6.029,13.2979,4.60002,2470.1,2020-6-11T07:07:32Z
2020-06-11T05:09:51Z,42.805,6.029,13.2974,4.59991,2470.087,2020-6-11T07:10:35Z
2020-06-11T05:12:54Z,42.805,6.029,13.2977,4.59984,2470.087,2020-6-11T07:13:38Z
2020-06-11T05:15:58Z,42.805,6.029,13.2974,4.59990,2470.124,2020-6-11T07:16:42Z
2020-06-11T05:19:01Z,42.805,6.029,13.2982,4.59986,2470.087,2020-6-11T07:19:45Z
2020-06-11T05:22:04Z,42.805,6.029,13.2979,4.60005,2470.063,2020-6-11T07:22:48Z
2020-06-11T05:25:07Z,42.805,6.029,13.2981,4.60010,2470.087,2020-6-11T07:25:52Z
2020-06-11T05:28:11Z,42.805,6.029,13.2981,4.59997,2470.1,2020-6-11T07:28:55Z
2020-06-11T05:31:14Z,42.805,6.029,13.2979,4.59987,2470.124,2020-6-11T07:31:58Z
2020-06-11T05:34:17Z,42.805,6.029,13.2982,4.59994,2470.053,2020-6-11T07:35:01Z
2020-06-11T05:37:21Z,42.805,6.029,13.2976,4.59999,2470.087,2020-6-11T07:38:05Z
2020-06-11T05:40:24Z,42.805,6.029,13.2981,4.59998,2470.087,2020-6-11T07:41:08Z
2020-06-11T05:43:27Z,42.805,6.029,13.2980,4.60016,2470.11,2020-6-11T07:44:11Z
2020-06-11T05:46:31Z,42.805,6.029,13.2976,4.59992,2470.096,2020-6-11T07:47:15Z
2020-06-11T05:49:34Z,42.805,6.029,13.2985,4.60006,2470.063,2020-6-11T07:50:18Z
2020-06-11T05:52:37Z,42.805,6.029,13.2983,4.59987,2470.11,2020-6-11T07:53:21Z
2020-06-11T05:55:40Z,42.805,6.029,13.2981,4.60002,2470.087,2020-6-11T07:56:24Z
2020-06-11T05:58:43Z,42.805,6.029,13.2980,4.59989,2470.133,2020-6-11T07:59:27Z
2020-06-11T06:01:47Z,42.805,6.029,13.2992,4.59992,2470.087,2020-6-11T08:02:31Z
2020-06-11T06:04:50Z,42.805,6.029,13.2982,4.60002,2470.087,2020-6-11T08:05:34Z
2020-06-11T06:07:53Z,42.805,6.029,13.2986,4.59995,2470.087,2020-6-11T08:08:37Z
2020-06-11T06:10:56Z,42.805,6.029,13.2979,4.59990,2470.1,2020-6-11T08:11:40Z
2020-06-11T06:14:00Z,42.805,6.029,13.2983,4.60006,2470.087,2020-6-11T08:14:44Z
2020-06-11T06:17:03Z,42.805,6.029,13.2982,4.59992,2470.077,2020-6-11T08:17:47Z
2020-06-11T06:20:06Z,42.805,6.029,13.2992,4.60000,2470.04,2020-6-11T08:20:50Z
2020-06-11T06:23:09Z,42.805,6.029,13.2979,4.59998,2470.087,2020-6-11T08:23:54Z
2020-06-11T06:26:13Z,42.805,6.029,13.2979,4.59989,2470.04,2020-6-11T08:26:57Z
2020-06-11T06:29:16Z,42.805,6.029,13.2976,4.60015,2470.11,2020-6-11T08:30:00Z
2020-06-11T06:32:19Z,42.805,6.029,13.2980,4.60002,2470.077,2020-6-11T08:33:03Z
2020-06-11T06:35:22Z,42.805,6.029,13.2979,4.59997,2470.1,2020-6-11T08:36:06Z
2020-06-11T06:38:26Z,42.805,6.029,13.2980,4.59997,2470.087,2020-6-11T08:39:10Z
2020-06-11T06:41:29Z,42.805,6.029,13.2976,4.59998,2470.124,2020-6-11T08:42:13Z
2020-06-11T06:44:32Z,42.805,6.029,13.2977,4.59987,2470.063,2020-6-11T08:45:16Z
2020-06-11T06:47:35Z,42.805,6.029,13.2984,4.59993,2470.063,2020-6-11T08:48:19Z
2020-06-11T06:50:38Z,42.805,6.029,13.2980,4.59991,2470.1,2020-6-11T08:51:23Z
2020-06-11T06:53:42Z,42.805,6.029,13.2982,4.59994,2470.087,2020-6-11T08:54:26Z
2020-06-11T06:56:45Z,42.805,6.029,13.2985,4.59991,2470.087,2020-6-11T08:57:29Z
2020-06-11T06:59:48Z,42.805,6.029,13.2971,4.59989,2470.1,2020-6-11T09:00:32Z
2020-06-11T07:02:52Z,42.805,6.029,13.2983,4.59995,2470.087,2020-6-11T09:03:36Z
2020-06-11T07:05:55Z,42.805,6.029,13.2980,4.59991,2470.063,2020-6-11T09:06:39Z
2020-06-11T07:08:58Z,42.805,6.029,13.2975,4.59999,2470.087,2020-6-11T09:09:42Z
2020-06-11T07:12:01Z,42.805,6.029,13.2980,4.59997,2470.087,2020-6-11T09:12:45Z
2020-06-11T07:15:04Z,42.805,6.029,13.2978,4.59997,2470.087,2020-6-11T09:15:49Z
2020-06-11T07:18:08Z,42.805,6.029,13.2978,4.59990,2470.11,2020-6-11T09:18:52Z
2020-06-11T07:21:11Z,42.805,6.029,13.2980,4.60004,2470.124,2020-6-11T09:21:55Z
2020-06-11T07:24:14Z,42.805,6.029,13.2978,4.59996,2470.124,2020-6-11T09:24:58Z
2020-06-11T07:27:18Z,42.805,6.029,13.2986,4.60003,2470.124,2020-6-11T09:28:02Z
2020-06-11T07:30:21Z,42.805,6.029,13.2976,4.59994,2470.1,2020-6-11T09:31:05Z
2020-06-11T07:33:24Z,42.805,6.029,13.2976,4.59990,2470.11,2020-6-11T09:34:08Z
2020-06-11T07:36:27Z,42.805,6.029,13.2987,4.59999,2470.11,2020-6-11T09:37:11Z
2020-06-11T07:39:31Z,42.805,6.029,13.2987,4.60011,2470.087,2020-6-11T09:40:15Z
2020-06-11T07:42:34Z,42.805,6.029,13.2986,4.60018,2470.124,2020-6-11T09:43:18Z
2020-06-11T07:45:37Z,42.805,6.029,13.2978,4.60001,2470.1,2020-6-11T09:46:21Z
2020-06-11T07:48:40Z,42.805,6.029,13.2993,4.60008,2470.087,2020-6-11T09:49:24Z
2020-06-11T07:51:44Z,42.805,6.029,13.2983,4.60001,2470.063,2020-6-11T09:52:28Z
2020-06-11T07:54:47Z,42.805,6.029,13.2986,4.60011,2470.11,2020-6-11T09:55:31Z
2020-06-11T07:57:50Z,42.805,6.029,13.2976,4.59994,2470.124,2020-6-11T09:58:34Z
2020-06-11T08:00:54Z,42.805,6.029,13.2982,4.60018,2470.133,2020-6-11T10:01:38Z
2020-06-11T08:03:57Z,42.805,6.029,13.2977,4.60003,2470.11,2020-6-11T10:04:41Z
2020-06-11T08:07:00Z,42.805,6.029,13.2975,4.60010,2470.1,2020-6-11T10:07:44Z
2020-06-11T08:10:03Z,42.805,6.029,13.2980,4.60001,2470.133,2020-6-11T10:10:47Z
2020-06-11T08:13:07Z,42.805,6.029,13.2980,4.59987,2470.124,2020-6-11T10:13:51Z
2020-06-11T08:16:10Z,42.805,6.029,13.2976,4.59991,2470.11,2020-6-11T10:16:54Z
2020-06-11T08:19:13Z,42.805,6.029,13.2987,4.60011,2470.133,2020-6-11T10:19:57Z
2020-06-11T08:22:16Z,42.805,6.029,13.2998,4.60014,2470.124,2020-6-11T10:23:00Z
2020-06-11T08:25:20Z,42.805,6.029,13.2994,4.60022,2470.087,2020-6-11T10:26:04Z
2020-06-11T08:28:23Z,42.805,6.029,13.2979,4.60000,2470.156,2020-6-11T10:29:07Z
2020-06-11T08:31:26Z,42.805,6.029,13.2987,4.60003,2470.11,2020-6-11T10:32:10Z
2020-06-11T08:34:29Z,42.805,6.029,13.2978,4.59994,2470.1,2020-6-11T10:35:13Z
2020-06-11T08:37:32Z,42.805,6.029,13.2973,4.59999,2470.124,2020-6-11T10:38:16Z
2020-06-11T08:40:36Z,42.805,6.029,13.2979,4.59988,2470.147,2020-6-11T10:41:20Z
2020-06-11T08:43:39Z,42.805,6.029,13.2978,4.59993,2470.11,2020-6-11T10:44:23Z
2020-06-11T08:46:42Z,42.805,6.029,13.2979,4.59999,2470.133,2020-6-11T10:47:26Z
2020-06-11T08:49:45Z,42.805,6.029,13.2981,4.59994,2470.143,2020-6-11T10:50:29Z
2020-06-11T08:52:49Z,42.805,6.029,13.2980,4.59992,2470.147,2020-6-11T10:53:33Z
2020-06-11T08:55:52Z,42.805,6.029,13.2968,4.59986,2470.133,2020-6-11T10:56:36Z
2020-06-11T08:58:55Z,42.805,6.029,13.2987,4.60011,2470.133,2020-6-11T10:59:39Z
2020-06-11T09:01:58Z,42.805,6.029,13.2976,4.59998,2470.156,2020-6-11T11:02:42Z
2020-06-11T09:05:02Z,42.805,6.029,13.2988,4.59995,2470.11,2020-6-11T11:05:46Z
2020-06-11T09:08:05Z,42.805,6.029,13.2981,4.59994,2470.11,2020-6-11T11:08:49Z
2020-06-11T09:11:08Z,42.805,6.029,13.2983,4.60013,2470.133,2020-6-11T11:11:52Z
2020-06-11T09:14:11Z,42.805,6.029,13.2973,4.59992,2470.087,2020-6-11T11:14:55Z
2020-06-11T09:17:14Z,42.805,6.029,13.2973,4.59999,2470.147,2020-6-11T11:17:59Z
2020-06-11T09:20:18Z,42.805,6.029,13.2988,4.60005,2470.133,2020-6-11T11:21:02Z
2020-06-11T09:23:21Z,42.805,6.029,13.2976,4.60000,2470.133,2020-6-11T11:24:05Z
2020-06-11T09:26:24Z,42.805,6.029,13.2979,4.60006,2470.147,2020-6-11T11:27:08Z
2020-06-11T09:29:27Z,42.805,6.029,13.2982,4.59999,2470.156,2020-6-11T11:30:11Z
2020-06-11T09:32:31Z,42.805,6.029,13.2976,4.59992,2470.156,2020-6-11T11:33:15Z
2020-06-11T09:35:34Z,42.805,6.029,13.2979,4.59993,2470.11,2020-6-11T11:36:18Z
2020-06-11T09:38:37Z,42.805,6.029,13.2974,4.60028,2470.147,2020-6-11T11:39:21Z
2020-06-11T09:41:40Z,42.805,6.029,13.2981,4.59995,2470.156,2020-6-11T11:42:25Z
2020-06-11T09:44:44Z,42.805,6.029,13.2985,4.59999,2470.147,2020-6-11T11:45:28Z
2020-06-11T09:47:47Z,42.805,6.029,13.2977,4.60014,2470.133,2020-6-11T11:48:31Z
2020-06-11T09:50:50Z,42.805,6.029,13.2975,4.59991,2470.133,2020-6-11T11:51:34Z
2020-06-11T09:53:54Z,42.805,6.029,13.2986,4.60000,2470.171,2020-6-11T11:54:38Z
2020-06-11T09:56:57Z,42.805,6.029,13.2978,4.59990,2470.147,2020-6-11T11:57:41Z
2020-06-11T10:00:00Z,42.805,6.029,13.2977,4.59999,2470.156,2020-6-11T12:00:44Z
2020-06-11T10:03:03Z,42.805,6.029,13.2981,4.59999,2470.147,2020-6-11T12:03:47Z
2020-06-11T10:06:06Z,42.805,6.029,13.2975,4.60000,2470.133,2020-6-11T12:06:50Z
2020-06-11T10:09:10Z,42.805,6.029,13.2977,4.59999,2470.133,2020-6-11T12:09:54Z
2020-06-11T10:12:13Z,42.805,6.029,13.2983,4.60015,2470.087,2020-6-11T12:12:57Z
2020-06-11T10:15:16Z,42.805,6.029,13.2976,4.60003,2470.147,2020-6-11T12:16:00Z
2020-06-11T10:18:19Z,42.805,6.029,13.2977,4.60015,2470.156,2020-6-11T12:19:04Z
2020-06-11T10:21:23Z,42.805,6.029,13.2982,4.60001,2470.147,2020-6-11T12:22:07Z
2020-06-11T10:24:26Z,42.805,6.029,13.2981,4.59996,2470.156,2020-6-11T12:25:10Z
2020-06-11T10:27:29Z,42.805,6.029,13.2979,4.60005,2470.133,2020-6-11T12:28:13Z
2020-06-11T10:30:32Z,42.805,6.029,13.2982,4.60014,2470.147,2020-6-11T12:31:16Z
2020-06-11T10:33:36Z,42.805,6.029,13.2984,4.59999,2470.147,2020-6-11T12:34:20Z
2020-06-11T10:36:39Z,42.805,6.029,13.2980,4.59998,2470.133,2020-6-11T12:37:23Z
2020-06-11T10:39:42Z,42.805,6.029,13.2991,4.60020,2470.156,2020-6-11T12:40:26Z
2020-06-11T10:42:45Z,42.805,6.029,13.2978,4.60015,2470.124,2020-6-11T12:43:30Z
2020-06-11T10:45:49Z,42.805,6.029,13.2983,4.59995,2470.133,2020-6-11T12:46:33Z
2020-06-11T10:48:52Z,42.805,6.029,13.2983,4.60016,2470.156,2020-6-11T12:49:36Z
2020-06-11T10:51:55Z,42.805,6.029,13.2976,4.59993,2470.11,2020-6-11T12:52:39Z
2020-06-11T10:54:58Z,42.805,6.029,13.2982,4.59991,2470.133,2020-6-11T12:55:42Z
2020-06-11T10:58:02Z,42.805,6.029,13.2984,4.59999,2470.11,2020-6-11T12:58:46Z
2020-06-11T11:01:05Z,42.805,6.029,13.2982,4.59999,2470.133,2020-6-11T13:01:49Z
2020-06-11T11:04:08Z,42.805,6.029,13.2986,4.60010,2470.147,2020-6-11T13:04:52Z
2020-06-11T11:07:11Z,42.805,6.029,13.2982,4.59998,2470.171,2020-6-11T13:07:55Z
2020-06-11T11:10:15Z,42.805,6.029,13.2983,4.60026,2470.147,2020-6-11T13:10:59Z
2020-06-11T11:13:18Z,42.805,6.029,13.2976,4.60007,2470.124,2020-6-11T13:14:02Z
2020-06-11T11:16:21Z,42.805,6.029,13.2976,4.59992,2470.133,2020-6-11T13:17:05Z
2020-06-11T11:19:24Z,42.805,6.029,13.2989,4.59996,2470.11,2020-6-11T13:20:08Z
2020-06-11T11:22:27Z,42.805,6.029,13.2982,4.60011,2470.087,2020-6-11T13:23:12Z
2020-06-11T11:25:31Z,42.805,6.029,13.2981,4.59993,2470.133,2020-6-11T13:26:15Z
2020-06-11T11:28:34Z,42.805,6.029,13.2981,4.59999,2470.124,2020-6-11T13:29:18Z
2020-06-11T11:31:37Z,42.805,6.029,13.2977,4.59994,2470.147,2020-6-11T13:32:21Z
2020-06-11T11:34:41Z,42.805,6.029,13.2979,4.60021,2470.133,2020-6-11T13:35:25Z
2020-06-11T11:37:44Z,42.805,6.029,13.2981,4.60001,2470.147,2020-6-11T13:38:28Z
2020-06-11T11:40:47Z,42.805,6.029,13.2991,4.60001,2470.133,2020-6-11T13:41:31Z
2020-06-11T11:43:50Z,42.805,6.029,13.2986,4.60016,2470.11,2020-6-11T13:44:34Z
2020-06-11T11:46:53Z,42.805,6.029,13.2984,4.60011,2470.124,2020-6-11T13:47:38Z
2020-06-11T11:49:57Z,42.805,6.029,13.2986,4.59989,2470.147,2020-6-11T13:50:41Z
2020-06-11T11:53:00Z,42.805,6.029,13.2981,4.60014,2470.11,2020-6-11T13:53:44Z
2020-06-11T11:56:03Z,42.805,6.029,13.2977,4.59996,2470.147,2020-6-11T13:56:47Z
2020-06-11T11:59:06Z,42.805,6.029,13.2975,4.59999,2470.133,2020-6-11T13:59:51Z
2020-06-11T12:02:10Z,42.805,6.029,13.2978,4.60003,2470.11,2020-6-11T14:02:54Z
2020-06-11T12:05:13Z,42.805,6.029,13.2984,4.60014,2470.133,2020-6-11T14:05:57Z
2020-06-11T12:08:16Z,42.805,6.029,13.2983,4.59996,2470.124,2020-6-11T14:09:00Z
2020-06-11T12:11:19Z,42.805,6.029,13.2982,4.60022,2470.133,2020-6-11T14:12:03Z
2020-06-11T12:14:23Z,42.805,6.029,13.2990,4.60015,2470.124,2020-6-11T14:15:07Z
2020-06-11T12:17:26Z,42.805,6.029,13.2979,4.60003,2470.124,2020-6-11T14:18:10Z
2020-06-11T12:20:29Z,42.805,6.029,13.2978,4.60010,2470.124,2020-6-11T14:21:13Z
2020-06-11T12:23:33Z,42.805,6.029,13.2977,4.59988,2470.147,2020-6-11T14:24:17Z
2020-06-11T12:26:36Z,42.805,6.029,13.2984,4.59995,2470.124,2020-6-11T14:27:20Z
2020-06-11T12:29:39Z,42.805,6.029,13.2982,4.60014,2470.087,2020-6-11T14:30:23Z
2020-06-11T12:32:42Z,42.805,6.029,13.2979,4.60003,2470.11,2020-6-11T14:33:26Z
2020-06-11T12:35:45Z,42.805,6.029,13.2983,4.59996,2470.1,2020-6-11T14:36:30Z
2020-06-11T12:38:49Z,42.805,6.029,13.2982,4.60013,2470.147,2020-6-11T14:39:33Z
2020-06-11T12:41:52Z,42.805,6.029,13.2979,4.59996,2470.11,2020-6-11T14:42:36Z
2020-06-11T12:44:55Z,42.805,6.029,13.2982,4.59989,2470.11,2020-6-11T14:45:39Z
2020-06-11T12:47:59Z,42.805,6.029,13.2982,4.59995,2470.11,2020-6-11T14:48:43Z
2020-06-11T12:51:02Z,42.805,6.029,13.2982,4.59995,2470.087,2020-6-11T14:51:46Z
2020-06-11T12:54:05Z,42.805,6.029,13.2990,4.60005,2470.087,2020-6-11T14:54:49Z
2020-06-11T12:57:08Z,42.805,6.029,13.2977,4.60003,2470.073,2020-6-11T14:57:52Z
2020-06-11T13:00:12Z,42.805,6.029,13.2976,4.59992,2470.1,2020-6-11T15:00:56Z
2020-06-11T13:03:15Z,42.805,6.029,13.2980,4.59997,2470.1,2020-6-11T15:03:59Z
2020-06-11T13:06:18Z,42.805,6.029,13.2984,4.59991,2470.087,2020-6-11T15:07:02Z
2020-06-11T13:09:21Z,42.805,6.029,13.2979,4.59996,2470.063,2020-6-11T15:10:05Z
2020-06-11T13:12:24Z,42.805,6.029,13.2976,4.59999,2470.063,2020-6-11T15:13:09Z
2020-06-11T13:15:28Z,42.805,6.029,13.2976,4.60009,2470.063,2020-6-11T15:16:12Z
2020-06-11T13:18:31Z,42.805,6.029,13.2976,4.59986,2470.11,2020-6-11T15:19:15Z
2020-06-11T13:21:34Z,42.805,6.029,13.2979,4.59988,2470.133,2020-6-11T15:22:18Z
2020-06-11T13:24:37Z,42.805,6.029,13.2975,4.59988,2470.133,2020-6-11T15:25:22Z
2020-06-11T13:27:41Z,42.805,6.029,13.2977,4.59988,2470.1,2020-6-11T15:28:25Z
2020-06-11T13:30:44Z,42.805,6.029,13.2976,4.59991,2470.063,2020-6-11T15:31:28Z
2020-06-11T13:33:47Z,42.805,6.029,13.2989,4.59996,2470.133,2020-6-11T15:34:31Z
2020-06-11T13:36:51Z,42.805,6.029,13.2979,4.59988,2470.063,2020-6-11T15:37:35Z
2020-06-11T13:39:54Z,42.805,6.029,13.2976,4.59984,2470.1,2020-6-11T15:40:38Z
2020-06-11T13:42:57Z,42.805,6.029,13.2979,4.59986,2470.063,2020-6-11T15:43:41Z
2020-06-11T13:46:00Z,42.805,6.029,13.2975,4.59986,2470.087,2020-6-11T15:46:44Z
2020-06-11T13:49:03Z,42.805,6.029,13.2978,4.59987,2470.087,2020-6-11T15:49:47Z
2020-06-11T13:52:07Z,42.805,6.029,13.2978,4.59988,2470.096,2020-6-11T15:52:51Z
2020-06-11T13:55:10Z,42.805,6.029,13.2974,4.59990,2470.1,2020-6-11T15:55:54Z
2020-06-11T13:58:13Z,42.805,6.029,13.2982,4.59998,2470.1,2020-6-11T15:58:57Z
2020-06-11T14:01:16Z,42.805,6.029,13.2980,4.59992,2470.087,2020-6-11T16:02:00Z
2020-06-11T14:04:20Z,42.805,6.029,13.2982,4.59988,2470.1,2020-6-11T16:05:04Z
2020-06-11T14:07:23Z,42.805,6.029,13.2983,4.59989,2470.11,2020-6-11T16:08:07Z
2020-06-11T14:10:26Z,42.805,6.029,13.2983,4.59987,2470.087,2020-6-11T16:11:10Z
2020-06-11T14:13:29Z,42.805,6.029,13.2979,4.59988,2470.077,2020-6-11T16:14:13Z
2020-06-11T14:16:33Z,42.805,6.029,13.2984,4.59990,2470.063,2020-6-11T16:17:17Z
2020-06-11T14:19:36Z,42.805,6.029,13.2974,4.59988,2470.063,2020-6-11T16:20:20Z
2020-06-11T14:22:39Z,42.805,6.029,13.2976,4.59989,2470.1,2020-6-11T16:23:23Z
2020-06-11T14:25:43Z,42.805,6.029,13.2978,4.59991,2470.063,2020-6-11T16:26:27Z
2020-06-11T14:28:46Z,42.805,6.029,13.2976,4.59995,2470.04,2020-6-11T16:29:30Z
2020-06-11T14:31:49Z,42.805,6.029,13.2975,4.59996,2470.1,2020-6-11T16:32:33Z
2020-06-11T14:34:52Z,42.805,6.029,13.2983,4.59990,2470.063,2020-6-11T16:35:37Z
2020-06-11T14:37:56Z,42.805,6.029,13.2976,4.59988,2470.1,2020-6-11T16:38:40Z
2020-06-11T14:40:59Z,42.805,6.029,13.2979,4.59991,2470.1,2020-6-11T16:41:43Z
2020-06-11T14:44:02Z,42.805,6.029,13.2976,4.59986,2470.077,2020-6-11T16:44:46Z
2020-06-11T14:47:06Z,42.805,6.029,13.2975,4.59984,2470.063,2020-6-11T16:47:50Z
2020-06-11T14:50:09Z,42.805,6.029,13.2980,4.59993,2470.04,2020-6-11T16:50:53Z
2020-06-11T14:53:12Z,42.805,6.029,13.2976,4.59990,2470.087,2020-6-11T16:53:56Z
2020-06-11T14:56:15Z,42.805,6.029,13.2979,4.59988,2470.077,2020-6-11T16:56:59Z
2020-06-11T14:59:19Z,42.805,6.029,13.2983,4.59993,2470.053,2020-6-11T17:00:03Z
2020-06-11T15:02:22Z,42.805,6.029,13.2977,4.59995,2470.04,2020-6-11T17:03:06Z
2020-06-11T15:05:25Z,42.805,6.029,13.2973,4.59988,2470.04,2020-6-11T17:06:09Z
2020-06-11T15:08:29Z,42.805,6.029,13.2982,4.59989,2470.11,2020-6-11T17:09:13Z
2020-06-11T15:11:32Z,42.805,6.029,13.2980,4.59984,2470.063,2020-6-11T17:12:16Z
2020-06-11T15:14:35Z,42.805,6.029,13.2974,4.59985,2470.03,2020-6-11T17:15:19Z